This is the latest recevied weather packets stored in our database for station/object Kisslegg. If no packets are shown the sender has not sent any weather packets the latest 10 day(s).
| Time | Temp. | Humidity | Pressure | Rain* | Wind** | Luminosity | Snow |
|---|---|---|---|---|---|---|---|
| 1777897935 | 21.67° C | 45% | 1011 hPa | 0 mm | - | - | - |
| 1777896130 | 20.56° C | 44% | 1011.3 hPa | 0 mm | - | - | - |
| 1777894331 | 21.67° C | 47% | 1011.4 hPa | 0 mm | - | - | - |
| 1777892530 | 20.56° C | 47% | 1011.6 hPa | 0 mm | - | - | - |
| 1777890735 | 20.56° C | 43% | 1011.9 hPa | 0 mm | - | - | - |
| 1777888932 | 20.56° C | 50% | 1012.2 hPa | 0 mm | - | - | - |
| 1777887130 | 19.44° C | 54% | 1012.5 hPa | 0 mm | - | - | - |
| 1777885331 | 18.89° C | 52% | 1012.7 hPa | 0 mm | - | - | - |
| 1777883533 | 17.78° C | 54% | 1012.9 hPa | 0 mm | - | - | - |
| 1777881731 | 16.67° C | 60% | 1013.3 hPa | 0 mm | - | - | - |
| 1777879930 | 16.11° C | 62% | 1013.3 hPa | 0 mm | - | - | - |
| 1777878132 | 14.44° C | 69% | 1013.3 hPa | 0 mm | - | - | - |
| 1777876331 | 13.89° C | 72% | 1013.3 hPa | 0 mm | - | - | - |
| 1777874532 | 13.33° C | 67% | 1013.3 hPa | 0 mm | - | - | - |
| 1777872731 | 12.78° C | 71% | 1013.3 hPa | 0 mm | - | - | - |
| 1777870930 | 11.67° C | 73% | 1013.2 hPa | 0 mm | - | - | - |
| 1777869131 | 11.11° C | 78% | 1013.4 hPa | 0 mm | - | - | - |
| 1777867331 | 11.11° C | 79% | 1013.3 hPa | 0 mm | - | - | - |
| 1777865531 | 11.11° C | 78% | 1013.7 hPa | 0 mm | - | - | - |
| 1777863732 | 11.11° C | 78% | 1013.9 hPa | 0 mm | - | - | - |
| 1777861931 | 11.67° C | 77% | 1013.9 hPa | 0 mm | - | - | - |
| 1777860132 | 11.67° C | 77% | 1013.7 hPa | 0 mm | - | - | - |
| 1777858331 | 11.67° C | 76% | 1013.7 hPa | 0 mm | - | - | - |
| 1777856531 | 11.67° C | 77% | 1013.9 hPa | 0 mm | - | - | - |
| 1777854730 | 11.67° C | 77% | 1014.2 hPa | 0 mm | - | - | - |
* Rain since midnight (hover to see other rain measurements)
** Current wind speed in m/s (hover to see current wind gust speed)